Weather History for MMVA - May, 2013

Change the Weather History Date:

Tuesday, May 14, 2013

  Actual Average Record
Temperature  
Mean Temperature 82 °F -  
Max Temperature 91 °F 93 °F 100 °F (1998)
Min Temperature 73 °F 74 °F 71 °F (2001)
Cooling Degree Days 17    
Growing Degree Days 32 (Base 50)    
Moisture  
Dew Point 71 °F    
Average Humidity 71    
Maximum Humidity 94    
Minimum Humidity 38    
Precipitation  
Precipitation 0.00 in - - ()
Sea Level Pressure  
Sea Level Pressure 30.01 in    
Wind  
Wind Speed 2 mph ()    
Max Wind Speed 14 mph    
Max Gust Speed -    
Visibility 4.7 miles    
Events      
Averages and records for this station are not official NWS values.
T = Trace of Precipitation, MM = Missing Value Source: Averaged Metar Reports

Daily Weather History Graph

Daily Weather History Graph

Search for Another Location

Airport or City:

Trip Planner

Search our weather history database for the weather conditions in past years. The results will help you decide how hot, cold, wet, or windy it might be!

Date:

Astronomy

May. 14, 2013 Rise Set
Actual Time 6:38 AM CDT 7:36 PM CDT
Civil Twilight 6:15 AM CDT 8:00 PM CDT
Nautical Twilight 5:47 AM CDT 8:27 PM CDT
Astronomical Twilight 5:19 AM CDT 8:55 PM CDT
Moon 10:17 AM CDT (5/14) 11:29 PM CDT (5/14)
Length of Visible Light 13h 44m
Length of Day
12h 58m
Waxing Crescent, 19% of the Moon is Illuminated
May 14
Waxing Crescent
May 17
First Quarter
May 24
Full
May 31
Last Quarter
Jun 8
New

Hourly Weather History & Observations

Time (CDT) Temp. Heat Index Dew Point Humidity Pressure Visibility Wind Dir Wind Speed Gust Speed Precip Events Conditions
4:03 AM 75.2 °F - 73.4 °F 94% 29.98 in 1.0 mi Calm Calm - N/A   Overcast
4:40 AM 75.2 °F - 73.4 °F 94% 29.98 in 1.0 mi Calm Calm - N/A   Mostly Cloudy
5:40 AM 73.4 °F - 71.6 °F 94% 29.98 in 1.0 mi Calm Calm - N/A   Scattered Clouds
6:40 AM 73.4 °F - 71.6 °F 94% 30.04 in 1.0 mi Calm Calm - N/A   Haze
7:40 AM 75.2 °F - 73.4 °F 94% 30.01 in 1.5 mi Calm Calm - N/A   Haze
8:40 AM 78.8 °F - 77.0 °F 94% 30.02 in 3.0 mi Calm Calm - N/A   Haze
9:40 AM 82.4 °F 88.2 °F 73.4 °F 74% 30.09 in 5.0 mi Calm Calm - N/A   Scattered Clouds
10:40 AM 84.2 °F 90.9 °F 73.4 °F 70% 30.04 in 5.0 mi Calm Calm - N/A   Scattered Clouds
11:41 AM 86.0 °F 91.8 °F 71.6 °F 62% 30.03 in 5.0 mi Calm Calm - N/A   Scattered Clouds
12:40 PM 87.8 °F 92.6 °F 69.8 °F 55% 30.06 in 5.0 mi East 3.5 mph - N/A   Mostly Cloudy
1:40 PM 89.6 °F 92.2 °F 66.2 °F 46% 29.99 in 6.0 mi ENE 5.8 mph - N/A   Mostly Cloudy
3:43 PM 91.4 °F 93.2 °F 64.4 °F 41% 29.99 in 7.0 mi ENE 13.8 mph - N/A   Scattered Clouds
4:44 PM 91.4 °F 93.2 °F 64.4 °F 41% 29.98 in 7.0 mi NE 9.2 mph - N/A   Scattered Clouds
5:44 PM 91.4 °F 92.1 °F 62.6 °F 38% 29.97 in 7.0 mi NE 9.2 mph - N/A   Scattered Clouds
6:42 PM 87.8 °F 90.4 °F 66.2 °F 49% 29.97 in 7.0 mi NNE 5.8 mph - N/A   Scattered Clouds
7:44 PM 82.4 °F 86.3 °F 69.8 °F 66% 29.99 in 7.0 mi North 6.9 mph - N/A   Scattered Clouds
8:44 PM 80.6 °F 84.6 °F 71.6 °F 74% 30.01 in 7.0 mi NNE 6.9 mph - N/A   Scattered Clouds
9:50 PM 78.8 °F - 73.4 °F 83% 30.04 in 7.0 mi ENE 11.5 mph - N/A   Scattered Clouds
10:43 PM 78.8 °F - 73.4 °F 83% 30.05 in 6.0 mi NE 9.2 mph - N/A   Scattered Clouds